QPF
0.04 0.04 0.04 0.04 0.04 0.04 0.03 0.03 0.04 0.04 0.04 0.03 0.02 0.01 0.01 0.01 0.01 0.01 0.00 0.00 0.00 0.00 0.00 0.01 0.02 0.02 0.03 0.03 0.04 0.06 0.06 0.06 0.07 0.07 0.07 0.07 0.06 0.05
0.05 0.04 0.04 0.04 0.04 0.03 0.03 0.03 0.03 0.03 0.03 0.03 0.02 0.02 0.02 0.01 0.01 0.01 0.01 0.00 0.00 0.00 0.00 0.00 0.01 0.02 0.02 0.02 0.05 0.08 0.07 0.06 0.06 0.06 0.05 0.05 0.06 0.06
0.05 0.04 0.05 0.06 0.05 0.04 0.03 0.03 0.04 0.03 0.03 0.02 0.02 0.02 0.03 0.03 0.03 0.02 0.01 0.01 0.00 0.00 0.00 0.00 0.00 0.01 0.01 0.01 0.01 0.03 0.05 0.06 0.05 0.05 0.04 0.04 0.04 0.04
0.04 0.03 0.03 0.04 0.04 0.04 0.03 0.03 0.03 0.03 0.03 0.03 0.03 0.03 0.03 0.03 0.03 0.03 0.01 0.01 0.00 0.00 0.00 0.00 0.00 0.00 0.00 0.02 0.03 0.02 0.03 0.04 0.05 0.06 0.06 0.03 0.03 0.03
0.04 0.03 0.03 0.03 0.03 0.03 0.03 0.03 0.04 0.03 0.04 0.04 0.04 0.04 0.03 0.03 0.03 0.02 0.02 0.02 0.00 0.00 0.01 0.01 0.01 0.00 0.00 0.01 0.03 0.03 0.03 0.03 0.05 0.06 0.07 0.06 0.04 0.04
0.04 0.04 0.04 0.03 0.03 0.04 0.03 0.04 0.05 0.05 0.04 0.03 0.03 0.03 0.03 0.02 0.02 0.02 0.02 0.02 0.02 0.01 0.02 0.01 0.01 0.01 0.01 0.01 0.01 0.02 0.03 0.03 0.04 0.04 0.07 0.07 0.05 0.04
0.03 0.03 0.03 0.03 0.03 0.03 0.03 0.03 0.04 0.05 0.05 0.04 0.03 0.02 0.02 0.03 0.03 0.03 0.02 0.02 0.02 0.02 0.02 0.02 0.02 0.02 0.02 0.02 0.02 0.02 0.02 0.03 0.04 0.03 0.04 0.07 0.06 0.04
0.03 0.03 0.02 0.02 0.01 0.02 0.02 0.03 0.04 0.05 0.05 0.05 0.04 0.03 0.03 0.04 0.05 0.03 0.03 0.02 0.01 0.02 0.02 0.01 0.02 0.02 0.02 0.02 0.02 0.01 0.02 0.02 0.03 0.03 0.03 0.04 0.06 0.04
0.04 0.04 0.02 0.02 0.02 0.02 0.02 0.02 0.02 0.03 0.04 0.04 0.05 0.05 0.05 0.04 0.05 0.04 0.05 0.04 0.03 0.02 0.02 0.02 0.02 0.02 0.02 0.01 0.01 0.01 0.01 0.01 0.03 0.04 0.04 0.03 0.04 0.05
0.02 0.03 0.03 0.03 0.02 0.02 0.02 0.02 0.01 0.01 0.01 0.02 0.02 0.03 0.04 0.05 0.04 0.05 0.06 0.06 0.05 0.04 0.04 0.04 0.03 0.03 0.02 0.02 0.02 0.01 0.01 0.01 0.03 0.04 0.06 0.04 0.04 0.04
0.04 0.04 0.03 0.03 0.03 0.03 0.03 0.03 0.02 0.01 0.00 0.01 0.01 0.02 0.03 0.03 0.03 0.03 0.03 0.03 0.03 0.03 0.03 0.04 0.04 0.03 0.03 0.03 0.02 0.01 0.02 0.02 0.03 0.04 0.05 0.05 0.05 0.04
0.05 0.04 0.03 0.03 0.03 0.03 0.03 0.03 0.02 0.01 0.01 0.01 0.01 0.01 0.01 0.02 0.02 0.02 0.02 0.03 0.04 0.04 0.04 0.03 0.03 0.04 0.04 0.03 0.02 0.02 0.02 0.02 0.04 0.05 0.05 0.05 0.05 0.04
0.03 0.04 0.02 0.01 0.02 0.02 0.02 0.03 0.02 0.02 0.02 0.02 0.02 0.01 0.01 0.01 0.02 0.01 0.01 0.02 0.04 0.04 0.03 0.03 0.04 0.04 0.05 0.04 0.03 0.02 0.02 0.03 0.04 0.05 0.05 0.04 0.03 0.03
0.03 0.03 0.02 0.01 0.02 0.02 0.02 0.03 0.03 0.02 0.02 0.02 0.02 0.02 0.01 0.01 0.01 0.01 0.02 0.02 0.03 0.03 0.04 0.04 0.05 0.06 0.05 0.03 0.03 0.03 0.03 0.04 0.04 0.05 0.04 0.03 0.02 0.02
0.02 0.02 0.03 0.04 0.04 0.04 0.05 0.04 0.05 0.05 0.05 0.05 0.03 0.02 0.02 0.02 0.02 0.02 0.02 0.02 0.02 0.02 0.02 0.03 0.04 0.06 0.06 0.05 0.04 0.04 0.04 0.03 0.03 0.03 0.04 0.04 0.04 0.03
0.02 0.02 0.03 0.04 0.04 0.04 0.05 0.06 0.06 0.07 0.08 0.08 0.07 0.06 0.04 0.04 0.03 0.02 0.02 0.02 0.02 0.02 0.02 0.03 0.04 0.05 0.06 0.06 0.04 0.03 0.03 0.02 0.03 0.04 0.04 0.04 0.04 0.04
0.03 0.02 0.02 0.02 0.02 0.02 0.02 0.03 0.03 0.03 0.04 0.04 0.04 0.04 0.03 0.03 0.02 0.02 0.02 0.02 0.02 0.02 0.03 0.04 0.04 0.06 0.06 0.05 0.04 0.03 0.03 0.03 0.04 0.04 0.04 0.04 0.04 0.04
0.03 0.02 0.02 0.01 0.01 0.01 0.01 0.01 0.01 0.01 0.01 0.02 0.02 0.03 0.03 0.03 0.02 0.02 0.02 0.02 0.03 0.04 0.03 0.03 0.03 0.04 0.04 0.04 0.04 0.02 0.03 0.04 0.05 0.05 0.04 0.04 0.03 0.03
0.03 0.03 0.04 0.03 0.02 0.02 0.02 0.02 0.02 0.02 0.02 0.03 0.03 0.02 0.02 0.03 0.03 0.03 0.03 0.03 0.04 0.05 0.04 0.03 0.03 0.03 0.02 0.03 0.05 0.06 0.04 0.04 0.05 0.05 0.04 0.03 0.03 0.02
0.03 0.02 0.02 0.02 0.02 0.03 0.03 0.03 0.03 0.04 0.03 0.03 0.04 0.03 0.02 0.02 0.02 0.02 0.03 0.03 0.04 0.04 0.04 0.03 0.03 0.03 0.03 0.04 0.06 0.08 0.08 0.07 0.05 0.04 0.03 0.03 0.02 0.03
0.05 0.05 0.04 0.03 0.02 0.02 0.02 0.03 0.04 0.04 0.04 0.04 0.04 0.03 0.03 0.02 0.02 0.02 0.03 0.03 0.04 0.03 0.03 0.03 0.03 0.04 0.03 0.04 0.03 0.03 0.04 0.05 0.04 0.03 0.03 0.03 0.03 0.03
0.04 0.05 0.06 0.06 0.04 0.04 0.03 0.03 0.03 0.04 0.04 0.05 0.05 0.04 0.03 0.03 0.03 0.03 0.03 0.03 0.03 0.02 0.03 0.03 0.02 0.03 0.03 0.03 0.02 0.02 0.02 0.02 0.01 0.01 0.01 0.02 0.02 0.03
0.05 0.05 0.07 0.07 0.07 0.07 0.06 0.06 0.05 0.05 0.04 0.04 0.04 0.04 0.03 0.03 0.04 0.04 0.03 0.03 0.03 0.02 0.03 0.03 0.03 0.03 0.03 0.02 0.02 0.02 0.01 0.01 0.01 0.01 0.01 0.01 0.01 0.01
MSLP
1012.04 1012.64 1013.19 1013.68 1014.09 1014.41 1014.65 1014.80 1014.90 1014.94 1014.97 1015.00 1015.07 1015.19 1015.39 1015.67 1016.02 1016.44 1016.88 1017.34 1017.76 1018.11 1018.39 1018.57 1018.67 1018.70 1018.68 1018.65 1018.64 1018.68 1018.78 1018.95 1019.17 1019.43 1019.69 1019.93 1020.13 1020.26
1011.80 1012.40 1012.93 1013.37 1013.72 1013.97 1014.14 1014.23 1014.29 1014.33 1014.38 1014.47 1014.61 1014.82 1015.10 1015.46 1015.89 1016.36 1016.85 1017.33 1017.78 1018.16 1018.47 1018.68 1018.82 1018.89 1018.91 1018.92 1018.95 1019.01 1019.12 1019.28 1019.48 1019.71 1019.93 1020.13 1020.27 1020.35
1011.47 1012.07 1012.59 1013.01 1013.32 1013.53 1013.65 1013.73 1013.79 1013.85 1013.95 1014.11 1014.34 1014.64 1015.01 1015.44 1015.92 1016.43 1016.95 1017.44 1017.89 1018.28 1018.60 1018.84 1019.01 1019.11 1019.18 1019.23 1019.29 1019.37 1019.49 1019.64 1019.82 1020.01 1020.19 1020.34 1020.42 1020.43
1011.02 1011.62 1012.14 1012.55 1012.85 1013.06 1013.19 1013.28 1013.37 1013.49 1013.66 1013.90 1014.21 1014.59 1015.03 1015.52 1016.03 1016.56 1017.07 1017.55 1017.98 1018.36 1018.68 1018.93 1019.12 1019.26 1019.37 1019.46 1019.56 1019.66 1019.79 1019.95 1020.11 1020.27 1020.41 1020.51 1020.54 1020.50
1010.42 1011.02 1011.55 1011.97 1012.29 1012.52 1012.69 1012.84 1012.99 1013.18 1013.43 1013.75 1014.13 1014.57 1015.06 1015.57 1016.09 1016.60 1017.08 1017.53 1017.93 1018.28 1018.59 1018.84 1019.06 1019.23 1019.39 1019.53 1019.66 1019.81 1019.97 1020.13 1020.30 1020.45 1020.57 1020.64 1020.65 1020.58
1009.69 1010.28 1010.81 1011.26 1011.62 1011.90 1012.14 1012.35 1012.58 1012.85 1013.17 1013.55 1013.99 1014.46 1014.96 1015.47 1015.96 1016.43 1016.87 1017.27 1017.63 1017.96 1018.25 1018.52 1018.75 1018.97 1019.18 1019.37 1019.57 1019.77 1019.97 1020.17 1020.36 1020.53 1020.66 1020.73 1020.74 1020.67
1008.86 1009.42 1009.96 1010.43 1010.84 1011.19 1011.50 1011.79 1012.10 1012.43 1012.81 1013.23 1013.69 1014.17 1014.65 1015.13 1015.58 1016.00 1016.38 1016.74 1017.06 1017.37 1017.66 1017.94 1018.21 1018.48 1018.75 1019.01 1019.28 1019.54 1019.81 1020.06 1020.30 1020.51 1020.68 1020.79 1020.83 1020.79
1008.01 1008.54 1009.07 1009.57 1010.02 1010.43 1010.80 1011.16 1011.53 1011.92 1012.33 1012.76 1013.22 1013.68 1014.12 1014.55 1014.95 1015.32 1015.65 1015.97 1016.27 1016.57 1016.87 1017.18 1017.50 1017.83 1018.16 1018.50 1018.84 1019.18 1019.52 1019.84 1020.15 1020.42 1020.65 1020.81 1020.91 1020.93
1007.21 1007.71 1008.23 1008.74 1009.23 1009.68 1010.11 1010.52 1010.93 1011.34 1011.76 1012.19 1012.62 1013.03 1013.43 1013.81 1014.16 1014.48 1014.78 1015.08 1015.38 1015.69 1016.01 1016.36 1016.73 1017.12 1017.52 1017.92 1018.34 1018.75 1019.15 1019.54 1019.91 1020.24 1020.53 1020.77 1020.94 1021.03
1006.52 1006.99 1007.50 1008.02 1008.53 1009.02 1009.48 1009.92 1010.35 1010.77 1011.18 1011.58 1011.97 1012.34 1012.69 1013.02 1013.33 1013.62 1013.91 1014.20 1014.52 1014.85 1015.21 1015.60 1016.02 1016.45 1016.90 1017.35 1017.81 1018.27 1018.71 1019.15 1019.56 1019.95 1020.29 1020.59 1020.82 1020.98
1005.96 1006.40 1006.90 1007.43 1007.95 1008.46 1008.94 1009.40 1009.83 1010.24 1010.63 1011.00 1011.36 1011.69 1012.00 1012.30 1012.59 1012.87 1013.16 1013.47 1013.80 1014.16 1014.56 1014.98 1015.42 1015.88 1016.35 1016.82 1017.28 1017.75 1018.20 1018.65 1019.08 1019.48 1019.86 1020.19 1020.47 1020.69
1005.48 1005.92 1006.42 1006.94 1007.47 1007.99 1008.48 1008.94 1009.37 1009.77 1010.14 1010.49 1010.81 1011.12 1011.41 1011.70 1011.98 1012.27 1012.58 1012.90 1013.26 1013.64 1014.05 1014.49 1014.93 1015.38 1015.83 1016.28 1016.72 1017.15 1017.58 1017.99 1018.40 1018.80 1019.17 1019.51 1019.81 1020.07
1005.03 1005.46 1005.95 1006.48 1007.01 1007.52 1008.01 1008.47 1008.89 1009.28 1009.65 1009.98 1010.30 1010.60 1010.89 1011.18 1011.47 1011.78 1012.11 1012.46 1012.83 1013.22 1013.63 1014.05 1014.47 1014.89 1015.29 1015.68 1016.06 1016.43 1016.79 1017.15 1017.51 1017.86 1018.21 1018.54 1018.85 1019.13
1004.54 1004.96 1005.43 1005.94 1006.46 1006.96 1007.44 1007.89 1008.31 1008.70 1009.06 1009.40 1009.73 1010.04 1010.35 1010.65 1010.97 1011.30 1011.65 1012.01 1012.39 1012.78 1013.17 1013.56 1013.93 1014.29 1014.62 1014.94 1015.24 1015.53 1015.82 1016.11 1016.41 1016.72 1017.04 1017.35 1017.66 1017.95
1003.98 1004.36 1004.81 1005.28 1005.76 1006.23 1006.70 1007.13 1007.55 1007.94 1008.31 1008.67 1009.01 1009.35 1009.68 1010.02 1010.36 1010.71 1011.08 1011.45 1011.82 1012.19 1012.55 1012.90 1013.22 1013.51 1013.78 1014.03 1014.26 1014.49 1014.71 1014.95 1015.21 1015.48 1015.77 1016.08 1016.39 1016.70
1003.39 1003.71 1004.09 1004.50 1004.92 1005.35 1005.78 1006.19 1006.60 1006.99 1007.37 1007.74 1008.11 1008.47 1008.83 1009.20 1009.56 1009.94 1010.31 1010.68 1011.04 1011.39 1011.73 1012.03 1012.31 1012.56 1012.79 1012.99 1013.19 1013.38 1013.58 1013.80 1014.04 1014.31 1014.60 1014.92 1015.26 1015.61
1002.88 1003.12 1003.40 1003.72 1004.06 1004.42 1004.79 1005.16 1005.54 1005.92 1006.30 1006.69 1007.07 1007.45 1007.84 1008.22 1008.61 1008.99 1009.37 1009.73 1010.09 1010.43 1010.74 1011.03 1011.30 1011.54 1011.76 1011.96 1012.17 1012.37 1012.60 1012.84 1013.11 1013.41 1013.74 1014.10 1014.48 1014.88
1002.64 1002.76 1002.92 1003.13 1003.37 1003.64 1003.93 1004.25 1004.58 1004.93 1005.30 1005.67 1006.06 1006.45 1006.84 1007.23 1007.62 1008.00 1008.38 1008.75 1009.10 1009.44 1009.76 1010.06 1010.35 1010.61 1010.87 1011.13 1011.39 1011.66 1011.95 1012.27 1012.61 1012.98 1013.37 1013.79 1014.22 1014.68
1002.84 1002.83 1002.86 1002.95 1003.07 1003.24 1003.44 1003.68 1003.95 1004.25 1004.58 1004.93 1005.29 1005.66 1006.04 1006.43 1006.81 1007.19 1007.57 1007.94 1008.30 1008.65 1009.00 1009.34 1009.67 1010.00 1010.33 1010.67 1011.02 1011.39 1011.78 1012.19 1012.62 1013.08 1013.54 1014.03 1014.52 1015.01
1003.59 1003.46 1003.39 1003.35 1003.37 1003.43 1003.53 1003.68 1003.88 1004.11 1004.37 1004.67 1004.98 1005.32 1005.67 1006.02 1006.39 1006.76 1007.13 1007.51 1007.88 1008.27 1008.65 1009.05 1009.45 1009.86 1010.28 1010.72 1011.18 1011.65 1012.14 1012.64 1013.16 1013.69 1014.22 1014.74 1015.27 1015.78
1004.91 1004.71 1004.55 1004.42 1004.34 1004.30 1004.31 1004.37 1004.48 1004.62 1004.81 1005.03 1005.28 1005.55 1005.85 1006.16 1006.50 1006.85 1007.21 1007.59 1007.99 1008.41 1008.84 1009.29 1009.76 1010.25 1010.76 1011.29 1011.83 1012.39 1012.96 1013.53 1014.10 1014.67 1015.22 1015.76 1016.28 1016.77
1006.72 1006.48 1006.27 1006.09 1005.94 1005.82 1005.75 1005.72 1005.74 1005.79 1005.88 1006.01 1006.18 1006.38 1006.61 1006.87 1007.16 1007.48 1007.84 1008.22 1008.63 1009.08 1009.55 1010.05 1010.57 1011.12 1011.69 1012.27 1012.86 1013.46 1014.06 1014.66 1015.24 1015.80 1016.34 1016.84 1017.30 1017.74
1008.81 1008.58 1008.36 1008.16 1007.98 1007.82 1007.68 1007.57 1007.50 1007.46 1007.46 1007.49 1007.56 1007.68 1007.83 1008.03 1008.27 1008.56 1008.89 1009.27 1009.69 1010.15 1010.64 1011.17 1011.72 1012.29 1012.87 1013.46 1014.06 1014.65 1015.23 1015.79 1016.33 1016.84 1017.31 1017.73 1018.12 1018.45
Thickness
5718 5716 5715 5716 5715 5715 5714 5712 5708 5705 5705 5706 5707 5706 5704 5702 5699 5698 5697 5695 5693 5692 5691 5691 5690 5689 5688 5687 5686 5685 5684 5683 5682 5680 5679 5678 5676 5675
5714 5713 5712 5713 5712 5712 5711 5710 5709 5706 5703 5706 5704 5705 5701 5700 5697 5696 5695 5692 5691 5690 5688 5687 5686 5685 5684 5683 5682 5681 5679 5678 5677 5676 5675 5674 5672 5671
5712 5711 5709 5709 5709 5709 5708 5707 5706 5704 5700 5701 5702 5701 5697 5695 5694 5693 5693 5692 5691 5688 5686 5684 5682 5681 5680 5678 5677 5675 5674 5673 5673 5671 5670 5669 5668 5667
5709 5708 5707 5706 5704 5704 5704 5703 5702 5701 5699 5695 5696 5696 5693 5691 5690 5689 5690 5691 5689 5685 5683 5681 5679 5677 5675 5674 5672 5670 5669 5668 5667 5666 5665 5664 5663 5661
5706 5704 5703 5702 5700 5700 5699 5699 5698 5699 5697 5694 5693 5692 5690 5689 5687 5686 5687 5685 5686 5683 5680 5678 5675 5673 5671 5669 5667 5665 5664 5663 5662 5661 5660 5659 5657 5656
5702 5701 5699 5697 5695 5694 5694 5693 5694 5693 5692 5691 5689 5688 5686 5684 5683 5682 5682 5682 5682 5681 5677 5675 5672 5669 5667 5665 5663 5661 5659 5657 5656 5655 5654 5653 5652 5651
5697 5696 5694 5691 5689 5689 5690 5689 5689 5688 5688 5687 5685 5684 5681 5679 5678 5679 5677 5677 5676 5676 5674 5673 5671 5669 5665 5661 5658 5655 5653 5652 5650 5650 5649 5648 5647 5645
5692 5691 5689 5687 5684 5681 5680 5680 5680 5680 5680 5679 5679 5676 5674 5674 5673 5673 5672 5671 5669 5671 5668 5668 5668 5665 5663 5660 5655 5651 5648 5646 5644 5644 5643 5642 5640 5639
5687 5685 5686 5685 5681 5680 5676 5673 5673 5672 5671 5672 5672 5670 5669 5669 5667 5666 5664 5664 5664 5665 5662 5662 5662 5660 5658 5654 5649 5645 5642 5640 5638 5637 5636 5634 5633 5633
5682 5680 5679 5677 5676 5673 5673 5671 5670 5669 5667 5666 5666 5665 5664 5662 5660 5659 5658 5658 5659 5660 5658 5656 5657 5655 5653 5648 5643 5640 5636 5634 5632 5630 5629 5627 5626 5626
5676 5675 5673 5671 5667 5664 5666 5665 5664 5663 5661 5659 5657 5655 5653 5652 5652 5653 5653 5653 5653 5655 5654 5650 5649 5648 5646 5643 5638 5633 5631 5628 5626 5624 5622 5621 5620 5619
5670 5668 5664 5663 5660 5658 5658 5658 5656 5657 5656 5654 5651 5649 5648 5647 5645 5645 5647 5646 5646 5646 5647 5642 5641 5639 5637 5637 5634 5630 5626 5623 5621 5619 5616 5615 5613 5613
5665 5664 5661 5654 5652 5650 5649 5650 5649 5648 5649 5648 5648 5648 5646 5645 5643 5641 5640 5639 5638 5638 5639 5634 5633 5631 5628 5628 5627 5624 5622 5619 5616 5614 5611 5609 5607 5606
5657 5657 5653 5647 5644 5642 5642 5642 5640 5638 5643 5643 5643 5642 5642 5640 5639 5636 5632 5630 5629 5628 5627 5625 5624 5622 5621 5619 5619 5618 5616 5614 5611 5610 5607 5604 5602 5601
5649 5645 5642 5639 5637 5637 5635 5634 5633 5635 5637 5636 5636 5636 5635 5634 5631 5628 5625 5623 5621 5621 5621 5617 5616 5616 5614 5612 5611 5610 5609 5608 5606 5604 5602 5600 5599 5598
5640 5637 5633 5631 5630 5630 5630 5630 5630 5630 5629 5629 5629 5628 5627 5625 5623 5622 5620 5618 5617 5617 5615 5612 5609 5607 5607 5606 5605 5604 5603 5601 5600 5598 5596 5595 5594 5594
5631 5631 5631 5630 5629 5629 5628 5627 5626 5624 5622 5622 5621 5621 5620 5618 5616 5615 5612 5611 5610 5609 5609 5607 5604 5601 5600 5599 5598 5597 5596 5595 5593 5591 5589 5589 5589 5589
5621 5625 5626 5625 5624 5624 5623 5622 5620 5618 5618 5617 5615 5614 5612 5611 5609 5608 5606 5604 5603 5602 5601 5600 5598 5595 5593 5594 5589 5590 5589 5588 5587 5585 5583 5582 5582 5582
5616 5620 5620 5619 5618 5617 5616 5615 5613 5611 5609 5609 5608 5607 5606 5604 5602 5600 5599 5597 5596 5595 5594 5593 5590 5587 5585 5585 5585 5579 5580 5580 5579 5578 5577 5576 5576 5576
5613 5614 5613 5612 5611 5610 5608 5606 5604 5602 5601 5600 5600 5599 5598 5597 5595 5594 5592 5590 5589 5588 5587 5586 5583 5580 5578 5576 5575 5573 5569 5570 5570 5569 5569 5568 5568 5566
5608 5607 5606 5605 5604 5602 5600 5597 5595 5594 5592 5591 5590 5589 5589 5589 5589 5588 5587 5582 5580 5580 5579 5577 5574 5569 5569 5567 5566 5566 5565 5560 5560 5559 5560 5560 5560 5560
5601 5600 5599 5597 5595 5593 5591 5589 5587 5585 5583 5582 5581 5581 5581 5581 5581 5580 5579 5577 5575 5573 5571 5569 5566 5564 5562 5560 5559 5558 5557 5555 5552 5549 5549 5549 5551 5552
5592 5591 5590 5589 5587 5585 5583 5580 5578 5576 5574 5573 5572 5572 5572 5572 5572 5571 5571 5569 5568 5566 5563 5561 5559 5556 5555 5553 5552 5550 5549 5549 5548 5545 5544 5542 5540 5540